FCYPGR GMMZ-GMAD

Flight info

Callsign FCYPGR
Flight time 1h 19m
Altitude 10500
Route DIRECT
Aircraft BE36/L-S/L

Departure

Time 2026-05-04 18:53
Airport Ouarzazate International Airport (GMMZ)

Arrival

Time 2026-05-04 20:12
Airport Al Massira Airport (GMAD)
Time Latitude Longitude Altitude Speed Heading
2026-05-04 18:39 30.93606 -6.90801 3618 ft 0 kts 300°
2026-05-04 18:44 30.93618 -6.90807 3741 ft 3 kts 10°
2026-05-04 18:44 30.93629 -6.90759 3738 ft 9 kts 115°
2026-05-04 18:45 30.93630 -6.90696 3737 ft 8 kts 47°
2026-05-04 18:45 30.93676 -6.90666 3737 ft 8 kts 26°
2026-05-04 18:45 30.93722 -6.90639 3739 ft 7 kts 27°
2026-05-04 18:45 30.93755 -6.90589 3749 ft 9 kts 102°
2026-05-04 18:46 30.93716 -6.90510 3733 ft 15 kts 122°
2026-05-04 18:46 30.93653 -6.90388 3729 ft 20 kts 119°
2026-05-04 18:46 30.93583 -6.90240 3726 ft 21 kts 118°
2026-05-04 18:46 30.93518 -6.90088 3723 ft 21 kts 115°
2026-05-04 18:47 30.93456 -6.89949 3723 ft 18 kts 119°
2026-05-04 18:47 30.93402 -6.89828 3719 ft 16 kts 116°
2026-05-04 18:47 30.93356 -6.89716 3719 ft 15 kts 116°
2026-05-04 18:47 30.93312 -6.89655 3713 ft 6 kts 170°
2026-05-04 18:48 30.93269 -6.89644 3715 ft 7 kts 150°
2026-05-04 18:48 30.93262 -6.89636 3718 ft 0 kts 131°
2026-05-04 18:49 30.93256 -6.89628 3716 ft 6 kts 129°
2026-05-04 18:49 30.93260 -6.89584 3710 ft 6 kts 43°
2026-05-04 18:50 30.93263 -6.89581 3717 ft 0 kts 36°
2026-05-04 18:51 30.93269 -6.89576 3712 ft 7 kts 36°
2026-05-04 18:51 30.93315 -6.89585 3711 ft 7 kts 297°
2026-05-04 18:51 30.93394 -6.89768 3717 ft 56 kts 298°
2026-05-04 18:51 30.93621 -6.90321 3798 ft 87 kts 296°
2026-05-04 18:52 30.93958 -6.90923 4039 ft 92 kts 317°
2026-05-04 18:52 30.94379 -6.91489 4345 ft 95 kts 304°
2026-05-04 18:52 30.94447 -6.91613 4377 ft 99 kts 303°
2026-05-04 18:53 30.94636 -6.92012 4518 ft 105 kts 297°
2026-05-04 18:53 30.94978 -6.92852 4695 ft 122 kts 292°
2026-05-04 18:53 30.95283 -6.93820 4921 ft 130 kts 288°
2026-05-04 18:53 30.95496 -6.94807 5279 ft 124 kts 287°
2026-05-04 18:54 30.95835 -6.95768 5460 ft 132 kts 296°
2026-05-04 18:54 30.96226 -6.96759 5625 ft 137 kts 296°
2026-05-04 18:54 30.96637 -6.97789 5738 ft 143 kts 295°
2026-05-04 18:54 30.97057 -6.98859 5851 ft 150 kts 294°
2026-05-04 18:55 30.97424 -7.00040 5871 ft 155 kts 292°
2026-05-04 18:55 30.98202 -7.02358 6105 ft 154 kts 298°
2026-05-04 18:55 30.98679 -7.03462 6233 ft 152 kts 299°
2026-05-04 18:56 30.99162 -7.04563 6360 ft 154 kts 298°
2026-05-04 18:56 30.99652 -7.05685 6477 ft 156 kts 298°
2026-05-04 18:56 31.00159 -7.06808 6492 ft 161 kts 302°
2026-05-04 18:56 31.00747 -7.07955 6496 ft 164 kts 302°
2026-05-04 18:57 31.01341 -7.09079 6500 ft 168 kts 302°
2026-05-04 18:57 31.01980 -7.10246 6501 ft 168 kts 305°
2026-05-04 18:57 31.02642 -7.11383 6495 ft 170 kts 306°
2026-05-04 18:57 31.03295 -7.12506 6497 ft 170 kts 305°
2026-05-04 18:58 31.03973 -7.13650 6495 ft 172 kts 305°
2026-05-04 18:58 31.04645 -7.14803 6500 ft 171 kts 305°
2026-05-04 18:58 31.05311 -7.15946 6502 ft 170 kts 305°
2026-05-04 18:58 31.05971 -7.17080 6497 ft 168 kts 306°
2026-05-04 18:59 31.06630 -7.18212 6501 ft 170 kts 305°
2026-05-04 18:59 31.07295 -7.19360 6506 ft 172 kts 305°
2026-05-04 18:59 31.07940 -7.20533 6499 ft 171 kts 302°
2026-05-04 18:59 31.08541 -7.21743 6495 ft 173 kts 301°
2026-05-04 19:00 31.09159 -7.22944 6491 ft 172 kts 303°
2026-05-04 19:00 31.09785 -7.24143 6502 ft 173 kts 302°
2026-05-04 19:00 31.10402 -7.25334 6496 ft 170 kts 302°
2026-05-04 19:00 31.11007 -7.26506 6510 ft 169 kts 302°
2026-05-04 19:01 31.11622 -7.27675 6513 ft 170 kts 303°
2026-05-04 19:01 31.12236 -7.28851 6511 ft 170 kts 303°
2026-05-04 19:01 31.12843 -7.30033 6523 ft 170 kts 302°
2026-05-04 19:01 31.13452 -7.31217 6526 ft 171 kts 302°
2026-05-04 19:02 31.14058 -7.32397 6604 ft 166 kts 302°
2026-05-04 19:02 31.14635 -7.33519 6770 ft 157 kts 302°
2026-05-04 19:02 31.15191 -7.34593 6942 ft 153 kts 301°
2026-05-04 19:02 31.15708 -7.35662 7113 ft 149 kts 301°
2026-05-04 19:03 31.16207 -7.36721 7304 ft 149 kts 301°
2026-05-04 19:03 31.16707 -7.37774 7473 ft 148 kts 301°
2026-05-04 19:03 31.17189 -7.38816 7644 ft 144 kts 300°
2026-05-04 19:03 31.17654 -7.39860 7818 ft 147 kts 300°
2026-05-04 19:04 31.18152 -7.40909 7960 ft 146 kts 305°
2026-05-04 19:04 31.18911 -7.41644 8107 ft 142 kts 341°
2026-05-04 19:04 31.19889 -7.41725 8277 ft 143 kts
2026-05-04 19:04 31.20893 -7.41669 8425 ft 144 kts
2026-05-04 19:05 31.21903 -7.41603 8600 ft 148 kts
2026-05-04 19:05 31.22935 -7.41526 8774 ft 149 kts
2026-05-04 19:05 31.23964 -7.41452 8943 ft 147 kts
2026-05-04 19:05 31.24980 -7.41390 9122 ft 146 kts
2026-05-04 19:06 31.26004 -7.41315 9293 ft 147 kts
2026-05-04 19:06 31.27020 -7.41234 9476 ft 148 kts
2026-05-04 19:06 31.28053 -7.41039 9656 ft 152 kts 12°
2026-05-04 19:06 31.29070 -7.40680 9832 ft 153 kts 15°
2026-05-04 19:07 31.30098 -7.40356 9997 ft 150 kts
2026-05-04 19:07 31.31119 -7.40310 10130 ft 143 kts 356°
2026-05-04 19:07 31.32123 -7.40295 9988 ft 144 kts 356°
2026-05-04 19:07 31.33158 -7.40361 9833 ft 155 kts 352°
2026-05-04 19:08 31.34243 -7.40452 9794 ft 151 kts 352°
2026-05-04 19:08 31.35260 -7.40540 9923 ft 144 kts 352°
2026-05-04 19:08 31.36242 -7.40625 10034 ft 139 kts 352°
2026-05-04 19:08 31.37195 -7.40704 10136 ft 134 kts 351°
2026-05-04 19:09 31.38116 -7.40772 10245 ft 131 kts 351°
2026-05-04 19:09 31.39011 -7.40839 10349 ft 127 kts 354°
2026-05-04 19:09 31.39887 -7.40886 10459 ft 125 kts 352°
2026-05-04 19:09 31.40760 -7.40944 10542 ft 126 kts 352°
2026-05-04 19:10 31.41653 -7.40999 10545 ft 131 kts 352°
2026-05-04 19:10 31.42540 -7.41217 10563 ft 130 kts 327°
2026-05-04 19:10 31.43255 -7.41864 10571 ft 131 kts 313°
2026-05-04 19:10 31.43938 -7.42592 10567 ft 135 kts 313°
2026-05-04 19:11 31.44632 -7.43335 10564 ft 133 kts 313°
2026-05-04 19:11 31.45284 -7.44026 10543 ft 121 kts 313°
2026-05-04 19:11 31.45918 -7.44700 10396 ft 127 kts 313°
2026-05-04 19:11 31.46575 -7.45405 10230 ft 129 kts 313°
2026-05-04 19:12 31.47231 -7.46129 10072 ft 130 kts 309°
2026-05-04 19:12 31.48175 -7.47920 9727 ft 131 kts 297°
2026-05-04 19:12 31.48636 -7.48846 9542 ft 132 kts 297°
2026-05-04 19:13 31.49102 -7.49785 9376 ft 134 kts 297°
2026-05-04 19:13 31.49570 -7.50730 9201 ft 134 kts 297°
2026-05-04 19:13 31.50036 -7.51680 9027 ft 135 kts 297°
2026-05-04 19:13 31.50498 -7.52639 8848 ft 135 kts 297°
2026-05-04 19:14 31.50962 -7.53597 8674 ft 135 kts 297°
2026-05-04 19:14 31.51422 -7.54565 8501 ft 136 kts 297°
2026-05-04 19:14 31.51882 -7.55539 8331 ft 137 kts 297°
2026-05-04 19:14 31.52349 -7.56511 8163 ft 137 kts 297°
2026-05-04 19:15 31.52803 -7.57493 7991 ft 138 kts 295°
2026-05-04 19:15 31.53216 -7.58511 7822 ft 139 kts 294°
2026-05-04 19:15 31.53630 -7.59543 7661 ft 140 kts 294°
2026-05-04 19:15 31.54047 -7.60583 7493 ft 142 kts 294°
2026-05-04 19:16 31.54469 -7.61631 7323 ft 142 kts 294°
2026-05-04 19:16 31.54903 -7.62727 7163 ft 157 kts 294°
2026-05-04 19:16 31.55373 -7.63931 7009 ft 167 kts 294°
2026-05-04 19:16 31.55862 -7.65192 6855 ft 172 kts 294°
2026-05-04 19:17 31.56360 -7.66483 6698 ft 175 kts 294°
2026-05-04 19:17 31.56861 -7.67792 6569 ft 176 kts 295°
2026-05-04 19:17 31.57348 -7.69091 6561 ft 172 kts 294°
2026-05-04 19:17 31.57820 -7.70365 6559 ft 169 kts 294°
2026-05-04 19:18 31.58285 -7.71627 6556 ft 168 kts 294°
2026-05-04 19:18 31.58705 -7.72876 6551 ft 167 kts 285°
2026-05-04 19:18 31.58925 -7.74207 6549 ft 166 kts 280°
2026-05-04 19:18 31.59108 -7.75570 6464 ft 171 kts 279°
2026-05-04 19:19 31.59291 -7.76954 6224 ft 177 kts 279°
2026-05-04 19:19 31.59478 -7.78396 5971 ft 180 kts 279°
2026-05-04 19:19 31.59657 -7.79831 5723 ft 176 kts 277°
2026-05-04 19:19 31.59754 -7.81237 5381 ft 170 kts 274°
2026-05-04 19:20 31.59801 -7.82602 5010 ft 166 kts 271°
2026-05-04 19:20 31.59790 -7.83940 4628 ft 163 kts 269°
2026-05-04 19:20 31.59765 -7.85260 4247 ft 161 kts 266°
2026-05-04 19:20 31.59646 -7.86564 3878 ft 161 kts 263°
2026-05-04 19:21 31.59489 -7.87851 3491 ft 156 kts 259°
2026-05-04 19:21 31.59219 -7.89047 3056 ft 148 kts 255°
2026-05-04 19:21 31.59070 -7.90145 2941 ft 125 kts 270°
2026-05-04 19:21 31.59172 -7.91137 2934 ft 124 kts 282°
2026-05-04 19:22 31.59344 -7.92123 2990 ft 126 kts 282°
2026-05-04 19:22 31.59540 -7.93165 2989 ft 131 kts 284°
2026-05-04 19:22 31.59736 -7.94230 2980 ft 136 kts 283°
2026-05-04 19:22 31.59905 -7.95297 3098 ft 132 kts 280°
2026-05-04 19:23 31.60052 -7.96377 3123 ft 134 kts 274°
2026-05-04 19:23 31.60085 -7.97487 3048 ft 137 kts 274°
2026-05-04 19:23 31.60175 -7.98523 2885 ft 119 kts 278°
2026-05-04 19:23 31.60271 -7.99376 2567 ft 96 kts 277°
2026-05-04 19:24 31.60341 -8.00140 2198 ft 93 kts 278°
2026-05-04 19:24 31.60439 -8.00834 1975 ft 82 kts 279°
2026-05-04 19:24 31.60503 -8.01500 1702 ft 84 kts 275°
2026-05-04 19:24 31.60557 -8.02152 1532 ft 71 kts 275°
2026-05-04 19:25 31.60588 -8.02694 1593 ft 71 kts 263°
2026-05-04 19:25 31.60392 -8.03240 1793 ft 79 kts 236°
2026-05-04 19:25 31.59918 -8.03577 2113 ft 86 kts 197°
2026-05-04 19:25 31.59255 -8.03685 2309 ft 109 kts 185°
2026-05-04 19:26 31.58729 -8.03734 2467 ft 121 kts 188°
2026-05-04 19:26 31.57920 -8.04115 2763 ft 132 kts 208°
2026-05-04 19:26 31.57039 -8.04646 2865 ft 153 kts 205°
2026-05-04 19:26 31.56031 -8.05167 2916 ft 165 kts 202°
2026-05-04 19:27 31.54952 -8.05591 3091 ft 161 kts 192°
2026-05-04 19:27 31.53831 -8.05803 3175 ft 163 kts 188°
2026-05-04 19:27 31.52710 -8.05958 3224 ft 165 kts 187°
2026-05-04 19:27 31.51560 -8.06110 3242 ft 167 kts 187°
2026-05-04 19:28 31.50414 -8.06224 3248 ft 170 kts 185°
2026-05-04 19:28 31.49204 -8.06266 3133 ft 175 kts 180°
2026-05-04 19:28 31.48017 -8.06259 3244 ft 167 kts 183°
2026-05-04 19:28 31.46858 -8.06443 3340 ft 168 kts 191°
2026-05-04 19:29 31.45725 -8.06748 3539 ft 160 kts 196°
2026-05-04 19:29 31.44660 -8.07092 3723 ft 162 kts 195°
2026-05-04 19:29 31.43493 -8.07419 3546 ft 176 kts 193°
2026-05-04 19:29 31.42312 -8.07768 3564 ft 175 kts 195°
2026-05-04 19:30 31.41122 -8.08078 3572 ft 175 kts 189°
2026-05-04 19:30 31.39915 -8.08238 3518 ft 179 kts 184°
2026-05-04 19:30 31.38677 -8.08291 3515 ft 178 kts 181°
2026-05-04 19:30 31.37444 -8.08322 3558 ft 175 kts 183°
2026-05-04 19:31 31.36237 -8.08447 3634 ft 173 kts 187°
2026-05-04 19:31 31.35045 -8.08642 3708 ft 172 kts 189°
2026-05-04 19:31 31.33846 -8.08819 3710 ft 176 kts 187°
2026-05-04 19:31 31.32609 -8.08989 3627 ft 181 kts 188°
2026-05-04 19:32 31.31370 -8.09211 3666 ft 179 kts 189°
2026-05-04 19:32 31.30147 -8.09477 3658 ft 179 kts 193°
2026-05-04 19:32 31.28940 -8.09837 3650 ft 180 kts 195°
2026-05-04 19:32 31.27701 -8.10075 3614 ft 181 kts 184°
2026-05-04 19:33 31.26486 -8.10201 3769 ft 174 kts 189°
2026-05-04 19:33 31.25288 -8.10444 3859 ft 173 kts 195°
2026-05-04 19:33 31.24177 -8.10784 4219 ft 161 kts 196°
2026-05-04 19:33 31.23075 -8.10973 4463 ft 160 kts 180°
2026-05-04 19:34 31.21967 -8.10713 4638 ft 165 kts 160°
2026-05-04 19:34 31.20925 -8.10126 4814 ft 167 kts 152°
2026-05-04 19:34 31.19895 -8.09530 5015 ft 163 kts 158°
2026-05-04 19:34 31.18807 -8.09278 5245 ft 156 kts 183°
2026-05-04 19:35 31.17808 -8.09466 5601 ft 143 kts 200°
2026-05-04 19:35 31.16844 -8.09784 5738 ft 149 kts 198°
2026-05-04 19:35 31.15798 -8.10124 5720 ft 159 kts 200°
2026-05-04 19:35 31.14785 -8.10615 5941 ft 159 kts 209°
2026-05-04 19:36 31.13864 -8.11262 6239 ft 147 kts 213°
2026-05-04 19:36 31.12967 -8.11755 6494 ft 145 kts 206°
2026-05-04 19:36 31.12000 -8.12150 6676 ft 149 kts 192°
2026-05-04 19:36 31.10945 -8.12285 6873 ft 152 kts 188°
2026-05-04 19:37 31.09892 -8.12521 7109 ft 155 kts 194°
2026-05-04 19:37 31.08804 -8.12778 7114 ft 167 kts 190°
2026-05-04 19:37 31.07646 -8.12966 7170 ft 170 kts 189°
2026-05-04 19:37 31.06481 -8.13193 7308 ft 168 kts 194°
2026-05-04 19:38 31.05345 -8.13477 7484 ft 164 kts 193°
2026-05-04 19:38 31.04206 -8.13762 7422 ft 175 kts 195°
2026-05-04 19:38 31.02978 -8.14115 7174 ft 184 kts 194°
2026-05-04 19:38 31.01833 -8.14650 7238 ft 174 kts 214°
2026-05-04 19:39 31.00849 -8.15446 7290 ft 173 kts 217°
2026-05-04 19:39 30.99875 -8.16284 7261 ft 173 kts 220°
2026-05-04 19:39 30.98919 -8.17156 7241 ft 176 kts 218°
2026-05-04 19:39 30.97911 -8.17947 7290 ft 169 kts 217°
2026-05-04 19:40 30.97023 -8.18797 7396 ft 161 kts 225°
2026-05-04 19:40 30.96278 -8.19776 7372 ft 167 kts 236°
2026-05-04 19:40 30.95606 -8.20863 7492 ft 165 kts 235°
2026-05-04 19:40 30.94885 -8.21909 7566 ft 167 kts 234°
2026-05-04 19:41 30.94206 -8.23001 7650 ft 162 kts 238°
2026-05-04 19:41 30.93676 -8.24112 7825 ft 156 kts 250°
2026-05-04 19:41 30.93331 -8.25349 7753 ft 167 kts 256°
2026-05-04 19:41 30.92998 -8.26626 7906 ft 162 kts 252°
2026-05-04 19:42 30.92594 -8.27864 7925 ft 164 kts 251°
2026-05-04 19:42 30.92173 -8.29122 7851 ft 170 kts 249°
2026-05-04 19:42 30.91798 -8.30423 7735 ft 172 kts 260°
2026-05-04 19:42 30.91536 -8.31772 7754 ft 167 kts 257°
2026-05-04 19:43 30.91206 -8.33050 7814 ft 164 kts 251°
2026-05-04 19:43 30.90718 -8.34258 7886 ft 164 kts 249°
2026-05-04 19:43 30.90265 -8.35499 7859 ft 171 kts 248°
2026-05-04 19:43 30.89771 -8.36758 7853 ft 169 kts 247°
2026-05-04 19:44 30.89221 -8.37976 7877 ft 171 kts 239°
2026-05-04 19:44 30.88735 -8.39218 7789 ft 173 kts 269°
2026-05-04 19:44 30.88767 -8.40516 8220 ft 150 kts 269°
2026-05-04 19:44 30.88395 -8.41619 8359 ft 154 kts 226°
2026-05-04 19:45 30.87430 -8.42246 8212 ft 176 kts 199°
2026-05-04 19:45 30.86158 -8.42374 8000 ft 186 kts 181°
2026-05-04 19:45 30.84894 -8.42334 7824 ft 175 kts 182°
2026-05-04 19:45 30.83685 -8.42327 7382 ft 178 kts 181°
2026-05-04 19:46 30.82445 -8.42236 6964 ft 177 kts 181°
2026-05-04 19:46 30.81236 -8.42344 6652 ft 174 kts 191°
2026-05-04 19:46 30.80075 -8.42714 6295 ft 173 kts 202°
2026-05-04 19:46 30.78972 -8.43247 5966 ft 169 kts 205°
2026-05-04 19:47 30.77926 -8.43774 5826 ft 159 kts 204°
2026-05-04 19:47 30.76924 -8.44282 5690 ft 156 kts 209°
2026-05-04 19:47 30.76025 -8.44961 5569 ft 153 kts 218°
2026-05-04 19:47 30.75248 -8.45776 5527 ft 147 kts 227°
2026-05-04 19:48 30.74552 -8.46629 5523 ft 144 kts 227°
2026-05-04 19:48 30.73884 -8.47483 5515 ft 141 kts 232°
2026-05-04 19:48 30.73262 -8.48344 5513 ft 139 kts 232°
2026-05-04 19:48 30.72647 -8.49200 5514 ft 137 kts 232°
2026-05-04 19:49 30.72040 -8.50047 5510 ft 136 kts 232°
2026-05-04 19:49 30.71435 -8.50895 5511 ft 136 kts 232°
2026-05-04 19:49 30.70832 -8.51744 5509 ft 136 kts 232°
2026-05-04 19:49 30.70229 -8.52597 5510 ft 136 kts 232°
2026-05-04 19:50 30.69631 -8.53432 5510 ft 136 kts 232°
2026-05-04 19:50 30.69025 -8.54274 5511 ft 136 kts 232°
2026-05-04 19:50 30.68427 -8.55128 5512 ft 137 kts 232°
2026-05-04 19:50 30.67820 -8.55979 5512 ft 137 kts 232°
2026-05-04 19:51 30.67213 -8.56826 5510 ft 136 kts 232°
2026-05-04 19:51 30.66603 -8.57662 5511 ft 136 kts 232°
2026-05-04 19:51 30.65989 -8.58502 5505 ft 135 kts 232°
2026-05-04 19:51 30.65382 -8.59324 5446 ft 135 kts 232°
2026-05-04 19:52 30.64753 -8.60166 5356 ft 141 kts 232°
2026-05-04 19:52 30.64110 -8.61050 5254 ft 143 kts 232°
2026-05-04 19:52 30.63465 -8.61928 5164 ft 143 kts 232°
2026-05-04 19:52 30.62819 -8.62817 5072 ft 145 kts 232°
2026-05-04 19:53 30.62161 -8.63719 4977 ft 147 kts 232°
2026-05-04 19:53 30.61507 -8.64619 4882 ft 146 kts 231°
2026-05-04 19:53 30.60853 -8.65530 4792 ft 148 kts 232°
2026-05-04 19:53 30.60200 -8.66455 4682 ft 148 kts 232°
2026-05-04 19:54 30.59548 -8.67370 4582 ft 148 kts 232°
2026-05-04 19:54 30.58895 -8.68283 4479 ft 146 kts 232°
2026-05-04 19:54 30.58590 -8.69367 4381 ft 145 kts 274°
2026-05-04 19:54 30.58423 -8.70499 4280 ft 146 kts 238°
2026-05-04 19:55 30.57732 -8.71366 4185 ft 147 kts 221°
2026-05-04 19:55 30.56945 -8.72125 4084 ft 147 kts 220°
2026-05-04 19:55 30.56139 -8.72882 3976 ft 151 kts 221°
2026-05-04 19:55 30.55321 -8.73627 3893 ft 151 kts 219°
2026-05-04 19:56 30.54447 -8.74318 3795 ft 153 kts 216°
2026-05-04 19:56 30.53574 -8.75011 3694 ft 151 kts 217°
2026-05-04 19:56 30.52717 -8.75727 3602 ft 153 kts 221°
2026-05-04 19:56 30.51902 -8.76511 3521 ft 150 kts 222°
2026-05-04 19:57 30.51156 -8.77325 3520 ft 146 kts 226°
2026-05-04 19:57 30.50442 -8.78137 3513 ft 142 kts 225°
2026-05-04 19:57 30.49743 -8.78945 3509 ft 141 kts 227°
2026-05-04 19:57 30.49087 -8.79786 3502 ft 140 kts 230°
2026-05-04 19:58 30.48447 -8.80624 3503 ft 138 kts 230°
2026-05-04 19:58 30.47813 -8.81460 3504 ft 139 kts 230°
2026-05-04 19:58 30.47174 -8.82308 3504 ft 140 kts 230°
2026-05-04 19:58 30.46546 -8.83146 3503 ft 139 kts 230°
2026-05-04 19:59 30.45912 -8.83989 3502 ft 139 kts 230°
2026-05-04 19:59 30.45257 -8.84861 3507 ft 151 kts 230°
2026-05-04 19:59 30.44538 -8.85809 3510 ft 161 kts 230°
2026-05-04 19:59 30.43786 -8.86802 3518 ft 167 kts 230°
2026-05-04 20:00 30.43098 -8.87884 3520 ft 168 kts 250°
2026-05-04 20:00 30.42966 -8.89218 3524 ft 167 kts 266°
2026-05-04 20:00 30.42791 -8.90566 3517 ft 171 kts 259°
2026-05-04 20:00 30.42526 -8.91915 3517 ft 172 kts 257°
2026-05-04 20:01 30.42244 -8.93269 3470 ft 175 kts 257°
2026-05-04 20:01 30.41954 -8.94660 3370 ft 180 kts 257°
2026-05-04 20:01 30.41662 -8.96083 3277 ft 183 kts 257°
2026-05-04 20:01 30.41364 -8.97520 3180 ft 183 kts 256°
2026-05-04 20:02 30.41066 -8.98956 3080 ft 184 kts 257°
2026-05-04 20:02 30.40769 -9.00390 2976 ft 182 kts 257°
2026-05-04 20:02 30.40473 -9.01818 2880 ft 182 kts 257°
2026-05-04 20:02 30.40176 -9.03249 2781 ft 183 kts 257°
2026-05-04 20:03 30.39877 -9.04685 2680 ft 183 kts 257°
2026-05-04 20:03 30.39580 -9.06116 2583 ft 183 kts 257°
2026-05-04 20:03 30.39284 -9.07545 2507 ft 181 kts 257°
2026-05-04 20:03 30.38991 -9.08950 2511 ft 178 kts 257°
2026-05-04 20:04 30.38702 -9.10337 2511 ft 177 kts 256°
2026-05-04 20:04 30.38416 -9.11719 2501 ft 176 kts 256°
2026-05-04 20:04 30.38129 -9.13096 2499 ft 176 kts 256°
2026-05-04 20:04 30.37839 -9.14474 2501 ft 177 kts 256°
2026-05-04 20:05 30.37552 -9.15858 2498 ft 176 kts 256°
2026-05-04 20:05 30.37267 -9.17236 2495 ft 176 kts 256°
2026-05-04 20:05 30.36977 -9.18618 2500 ft 177 kts 256°
2026-05-04 20:05 30.36694 -9.19915 2499 ft 154 kts 255°
2026-05-04 20:06 30.36429 -9.21030 2530 ft 136 kts 254°
2026-05-04 20:06 30.36188 -9.22057 2444 ft 130 kts 255°
2026-05-04 20:06 30.35995 -9.23035 2472 ft 127 kts 257°
2026-05-04 20:06 30.35802 -9.24050 2532 ft 130 kts 256°
2026-05-04 20:07 30.35578 -9.25076 2564 ft 132 kts 253°
2026-05-04 20:07 30.35322 -9.26050 2658 ft 126 kts 253°
2026-05-04 20:07 30.34967 -9.26896 2785 ft 111 kts 214°
2026-05-04 20:07 30.34224 -9.26891 2689 ft 120 kts 153°
2026-05-04 20:08 30.33509 -9.26269 2516 ft 135 kts 144°
2026-05-04 20:08 30.32688 -9.25806 2433 ft 130 kts 180°
2026-05-04 20:08 30.31924 -9.26297 2104 ft 138 kts 240°
2026-05-04 20:08 30.31746 -9.27345 2028 ft 129 kts 274°
2026-05-04 20:09 30.31841 -9.28413 1991 ft 137 kts 276°
2026-05-04 20:09 30.31929 -9.29515 2029 ft 141 kts 274°
2026-05-04 20:09 30.31966 -9.30660 1988 ft 145 kts 272°
2026-05-04 20:09 30.31998 -9.31832 1934 ft 148 kts 270°
2026-05-04 20:10 30.32005 -9.33030 1765 ft 142 kts 271°
2026-05-04 20:10 30.32040 -9.34032 1665 ft 109 kts 271°
2026-05-04 20:10 30.32077 -9.34882 1368 ft 107 kts 271°
2026-05-04 20:10 30.32104 -9.35719 1186 ft 96 kts 271°
2026-05-04 20:11 30.32153 -9.36473 946 ft 92 kts 271°
2026-05-04 20:11 30.32171 -9.37193 774 ft 88 kts 269°
2026-05-04 20:11 30.32190 -9.37884 601 ft 83 kts 269°
2026-05-04 20:11 30.32195 -9.38550 492 ft 84 kts 269°
2026-05-04 20:12 30.32213 -9.39226 351 ft 84 kts 268°
2026-05-04 20:12 30.32231 -9.39875 252 ft 70 kts 268°
2026-05-04 20:12 30.32238 -9.40318 239 ft 44 kts 271°
2026-05-04 20:12 30.32246 -9.40665 235 ft 26 kts 278°
2026-05-04 20:13 30.32300 -9.40701 235 ft 10 kts 19°
2026-05-04 20:13 30.32361 -9.40681 235 ft 9 kts
2026-05-04 20:13 30.32426 -9.40677 236 ft 9 kts
2026-05-04 20:13 30.32488 -9.40674 237 ft 9 kts
2026-05-04 20:14 30.32574 -9.40675 236 ft 14 kts
2026-05-04 20:14 30.32677 -9.40672 236 ft 15 kts
2026-05-04 20:14 30.32744 -9.40672 236 ft 13 kts 359°
2026-05-04 20:14 30.32798 -9.40712 235 ft 11 kts 284°
2026-05-04 20:15 30.32803 -9.40807 234 ft 13 kts 269°
2026-05-04 20:15 30.32809 -9.40895 232 ft 9 kts 306°
2026-05-04 20:15 30.32859 -9.40894 232 ft 5 kts 26°
2026-05-04 20:15 30.32863 -9.40891 232 ft 0 kts 23°